N9PBY-2 Weather Reports


time (UTC)temp
C
wind
direction
speed
KPH
gust
KPH
rain 1hr
cm
rain 24hr
cm
rain mn
cm
humidity
%
barometer
mb
20260906154007 22 155 1.6 8.0 0.00 0.00 0.00 66 1021.5
20260906153007 22 132 3.2 12.9 0.00 0.00 0.00 67 1021.4
20260906152007 22 103 3.2 8.0 0.00 0.00 0.00 67 1021.4
20260906151007 22 118 3.2 11.3 0.00 0.00 0.00 68 1021.3
20260906150007 22 133 1.6 8.0 0.00 0.00 0.00 69 1021.2
20260906145007 22 114 1.6 8.0 0.00 0.00 0.00 69 1021.3
20260906144007 22 121 1.6 8.0 0.00 0.00 0.00 71 1021.3
20260906143007 22 108 1.6 4.8 0.00 0.00 0.00 72 1021.1
20260906142007 21 122 1.6 8.0 0.00 0.00 0.00 74 1021.2
20260906141007 21 134 1.6 9.7 0.00 0.00 0.00 75 1021.3
20260906140007 21 138 1.6 6.4 0.00 0.00 0.00 77 1021.1
20260906135007 20 134 1.6 8.0 0.00 0.00 0.00 79 1021.0
20260906134007 20 134 1.6 6.4 0.00 0.00 0.00 81 1021.1
20260906133007 19 115 1.6 4.8 0.00 0.00 0.00 83 1021.0
20260906132007 19 114 1.6 6.4 0.00 0.00 0.00 83 1021.1
20260906131007 18 118 0.0 4.8 0.00 0.00 0.00 83 1021.0
20260906130007 18 111 1.6 6.4 0.00 0.00 0.00 83 1020.9
20260906125007 17 102 0.0 1.6 0.00 0.00 0.00 83 1020.7
20260906124007 17 102 0.0 1.6 0.00 0.00 0.00 83 1020.6
20260906123007 17 102 0.0 4.8 0.00 0.00 0.00 83 1020.4
20260906122007 17 102 0.0 3.2 0.00 0.00 0.00 83 1020.3
20260906121007 17 72 0.0 3.2 0.00 0.00 0.00 83 1020.1
20260906120007 17 44 0.0 1.6 0.00 0.00 0.00 83 1020.1
20260906115007 17 0 0.0 0.0 0.00 0.00 0.00 83 1020.0
20260906114007 17 42 0.0 3.2 0.00 0.00 0.00 83 1020.0
20260906113007 17 42 0.0 3.2 0.00 0.00 0.00 83 1019.8
20260906112007 17 43 0.0 1.6 0.00 0.00 0.00 83 1019.5
20260906111006 17 42 0.0 1.6 0.00 0.00 0.00 83 1019.5
20260906110007 17 42 0.0 3.2 0.00 0.00 0.00 83 1019.4
20260906105007 17 42 0.0 1.6 0.00 0.00 0.00 83 1019.3
20260906104007 17 43 0.0 1.6 0.00 0.00 0.00 83 1019.3
20260906103007 17 42 0.0 1.6 0.00 0.00 0.00 82 1019.3
20260906102007 17 42 0.0 1.6 0.00 0.00 0.00 82 1019.4
20260906101006 17 42 1.6 3.2 0.00 0.00 0.00 82 1019.4
20260906100007 17 38 3.2 4.8 0.00 0.00 0.00 83 1019.2
20260906095007 17 50 1.6 4.8 0.00 0.00 0.00 83 1019.2
20260906094007 17 42 1.6 6.4 0.00 0.00 0.00 83 1019.1
20260906093007 17 39 1.6 4.8 0.00 0.00 0.00 83 1019.2
20260906092007 17 29 1.6 4.8 0.00 0.00 0.00 82 1019.1
20260906091007 17 34 3.2 6.4 0.00 0.00 0.00 82 1019.0
20260906090007 17 29 3.2 6.4 0.00 0.00 0.00 82 1018.9
20260906085007 17 16 4.8 8.0 0.00 0.00 0.00 82 1018.9
20260906084007 17 22 3.2 8.0 0.00 0.00 0.00 82 1019.0
20260906083007 17 8 3.2 6.4 0.00 0.00 0.00 82 1019.1
20260906082007 17 12 3.2 6.4 0.00 0.00 0.00 82 1019.1
20260906081007 17 24 3.2 6.4 0.00 0.00 0.00 82 1019.0
20260906080007 17 19 3.2 8.0 0.00 0.00 0.00 82 1018.9
20260906075007 17 23 3.2 6.4 0.00 0.00 0.00 82 1018.8
20260906074007 17 18 1.6 3.2 0.00 0.00 0.00 82 1018.8
20260906073007 17 17 1.6 4.8 0.00 0.00 0.00 82 1018.7
20260906072007 17 15 3.2 6.4 0.00 0.00 0.00 82 1018.5
20260906071007 17 5 3.2 4.8 0.00 0.00 0.00 82 1018.4
20260906070007 17 349 1.6 4.8 0.00 0.00 0.00 82 1018.5
20260906065007 17 315 1.6 3.2 0.00 0.00 0.00 82 1018.6
20260906064007 17 321 0.0 4.8 0.00 0.00 0.00 82 1018.7
20260906063007 17 12 0.0 3.2 0.00 0.00 0.00 82 1018.6
20260906062007 17 12 0.0 1.6 0.00 0.00 0.00 82 1018.7
20260906061008 17 23 1.6 4.8 0.00 0.00 0.00 82 1018.5
20260906060008 17 25 3.2 8.0 0.00 0.00 0.00 82 1018.4
20260906055007 17 18 3.2 6.4 0.00 0.00 0.00 81 1018.3
20260906054007 17 12 3.2 6.4 0.00 0.00 0.00 81 1018.2
20260906053007 17 23 3.2 6.4 0.00 0.00 0.00 81 1018.3
20260906052007 17 24 3.2 4.8 0.00 0.00 0.00 81 1018.3
20260906051007 17 15 3.2 6.4 0.00 0.00 0.00 81 1018.2
20260906050013 17 18 1.6 8.0 0.00 0.00 0.00 81 1018.3
20260906045007 17 17 3.2 4.8 0.00 0.00 0.00 81 1018.3
20260906044008 18 22 3.2 8.0 0.00 0.00 0.00 81 1018.2
20260906043007 18 36 3.2 9.7 0.00 0.00 0.00 81 1018.2
20260906042007 18 30 3.2 8.0 0.00 0.00 0.00 81 1018.2
20260906041007 18 31 4.8 9.7 0.00 0.00 0.00 81 1018.1
20260906040008 18 25 4.8 11.3 0.00 0.00 0.00 81 1017.9
20260906035007 18 26 4.8 8.0 0.00 0.00 0.00 80 1018.0
20260906034007 18 39 4.8 9.7 0.00 0.00 0.00 80 1017.8
20260906033007 18 34 3.2 8.0 0.00 0.00 0.00 80 1017.9
20260906032007 18 33 3.2 9.7 0.00 0.00 0.00 80 1018.0
20260906031008 18 34 3.2 9.7 0.00 0.00 0.00 80 1018.0
20260906030007 18 32 3.2 6.4 0.00 0.00 0.00 80 1018.0
20260906025007 18 26 3.2 9.7 0.00 0.00 0.00 80 1018.1
20260906024007 18 33 4.8 11.3 0.00 0.00 0.00 80 1017.9
20260906023008 18 31 4.8 12.9 0.00 0.00 0.00 79 1017.8
20260906022007 18 35 4.8 11.3 0.00 0.00 0.00 79 1017.8
20260906021007 18 39 4.8 12.9 0.00 0.00 0.00 79 1017.8
20260906020007 18 31 4.8 12.9 0.00 0.00 0.00 79 1017.7
20260906015007 18 38 3.2 9.7 0.00 0.00 0.00 78 1017.6
20260906014007 18 37 3.2 6.4 0.00 0.00 0.00 78 1017.5
20260906013007 18 42 3.2 9.7 0.00 0.00 0.00 78 1017.5
20260906012007 18 30 1.6 6.4 0.00 0.00 0.00 78 1017.5
20260906011007 19 42 1.6 9.7 0.00 0.00 0.00 78 1017.6
20260906010007 20 57 1.6 4.8 0.00 0.00 0.00 78 1017.6
20260906005007 20 70 0.0 3.2 0.00 0.00 0.00 77 1017.6
20260906004007 20 71 0.0 3.2 0.00 0.00 0.00 77 1017.5
20260906003007 20 70 0.0 3.2 0.00 0.00 0.00 76 1017.6
20260906002007 20 0 0.0 0.0 0.00 0.00 0.00 76 1017.6
20260906001008 20 70 1.6 3.2 0.00 0.00 0.00 76 1017.6
20260906000008 21 56 1.6 4.8 0.00 0.00 0.00 75 1017.6
20260905235008 21 37 1.6 6.4 0.00 0.00 0.00 75 1017.6
20260905234007 21 37 1.6 8.0 0.00 0.00 0.00 75 1017.5
20260905233007 21 34 3.2 9.7 0.00 0.00 0.00 75 1017.6
20260905232007 21 44 3.2 11.3 0.00 0.00 0.00 75 1017.5
20260905231007 22 55 1.6 8.0 0.00 0.00 0.00 75 1017.6
20260905230007 22 54 3.2 11.3 0.00 0.00 0.00 76 1017.4
20260905225007 22 40 4.8 11.3 0.00 0.00 0.00 77 1017.4
20260905224008 21 47 3.2 11.3 0.00 0.00 0.00 78 1017.3
20260905223007 21 46 3.2 11.3 0.00 0.00 0.00 78 1017.3
20260905222007 21 33 4.8 14.5 0.00 0.00 0.00 79 1017.3
20260905221008 21 36 4.8 12.9 0.00 0.00 0.00 79 1017.2
20260905220007 21 32 3.2 12.9 0.00 0.00 0.00 80 1017.2
20260905215008 21 37 4.8 11.3 0.00 0.00 0.00 80 1017.3
20260905214007 21 37 3.2 9.7 0.00 0.00 0.00 80 1017.2
20260905213008 21 29 4.8 12.9 0.00 0.00 0.00 80 1017.2
20260905212008 21 36 4.8 16.1 0.00 0.00 0.00 80 1017.2
20260905211007 21 46 4.8 14.5 0.00 0.00 0.00 80 1017.3
20260905210007 21 41 3.2 9.7 0.00 0.00 0.00 79 1017.4
20260905205008 21 36 4.8 12.9 0.00 0.00 0.00 79 1017.3
20260905204008 21 36 3.2 12.9 0.00 0.00 0.00 79 1017.3
20260905203007 21 35 4.8 11.3 0.00 0.00 0.00 79 1017.2
20260905202007 22 32 3.2 11.3 0.00 0.00 0.00 80 1017.2
20260905201007 22 34 4.8 11.3 0.00 0.00 0.00 80 1017.3
20260905200007 22 46 3.2 14.5 0.00 0.00 0.00 80 1017.1
20260905195007 22 41 4.8 12.9 0.00 0.00 0.00 81 1017.1
20260905194007 21 39 4.8 11.3 0.00 0.00 0.00 81 1017.2
20260905193008 21 33 4.8 16.1 0.00 0.00 0.00 82 1017.3
20260905192007 21 37 4.8 12.9 0.00 0.00 0.00 82 1017.2
20260905191007 21 37 3.2 9.7 0.00 0.00 0.00 82 1017.3
20260905190008 21 34 4.8 11.3 0.00 0.00 0.00 82 1017.2
20260905185007 21 37 4.8 14.5 0.00 0.00 0.00 82 1017.3
20260905184007 21 35 4.8 14.5 0.00 0.00 0.00 82 1017.4
20260905183007 21 42 6.4 12.9 0.00 0.00 0.00 82 1017.4
20260905182007 21 43 6.4 12.9 0.00 0.00 0.00 82 1017.4
20260905181008 21 37 4.8 12.9 0.00 0.00 0.00 82 1017.3
20260905180008 21 35 4.8 16.1 0.00 0.00 0.00 81 1017.3
20260905175006 21 37 4.8 11.3 0.00 0.00 0.00 81 1017.3
20260905174007 21 41 4.8 12.9 0.00 0.00 0.00 82 1017.1
20260905173006 22 42 4.8 14.5 0.00 0.00 0.00 81 1017.2
20260905172007 22 31 4.8 12.9 0.00 0.00 0.00 81 1017.3
20260905171007 22 47 4.8 9.7 0.00 0.00 0.00 81 1017.2
20260905170006 22 35 4.8 12.9 0.00 0.00 0.00 81 1017.1
20260905165007 22 43 4.8 14.5 0.00 0.00 0.00 82 1017.1
20260905164007 22 40 6.4 16.1 0.00 0.00 0.00 81 1017.0
20260905163007 22 30 4.8 12.9 0.00 0.00 0.00 82 1017.2
20260905162008 22 37 6.4 17.7 0.00 0.00 0.00 82 1017.0
20260905161008 22 37 4.8 14.5 0.00 0.00 0.00 82 1016.9
20260905160007 22 22 3.2 11.3 0.00 0.00 0.00 83 1016.8
20260905155008 22 35 4.8 11.3 0.00 0.00 0.00 83 1016.6